Location: Kawakawa
(35.3830°S, 174.0670°E)
Time: 08:13:46
(UTC+13:00)

USA 32 - Pass Details

Date: 24 January 2019
Orbit: 777 x 783 km, 85.0° (Epoch: 21 September)

Event Time Altitude Azimuth Distance (km) Brightness Sun altitude
Rises 21:30:05 0° 355° (N) 3,250 7.0 -10.2°
Reaches altitude 10° 21:32:25 10° 353° (N) 2,331 6.2 -10.6°
Maximum altitude 21:37:39 79° 266° (W) 806 4.2 -11.5°
Drops below altitude 10° 21:42:59 10° 179° (S) 2,367 7.0 -12.4°
Sets 21:45:22 0° 177° (S) 3,303 7.8 -12.8°
